Location: Hiram
(41.3130°N, 81.1440°W)
Time: 07:20:44
(UTC-05:00)

Amateur Radio Satellites - All Passes

Search period start: 26 February 2017 06:50
Search period end: 27 February 2017 06:50
Location: Hiram, 41.3130°N, 81.1440°W

Satellite Date Start Highest point End Downlink Frequencies (MHz)
Time Altitude Azimuth
CUTE 1.7 + AOD 2 26 Feb 07:02:37 07:05:16 16° 92° (E) 07:07:52 437.475
ISS 26 Feb 07:06:15 07:08:47 21° 133° (SE) 07:11:20 437.550
KAITUO 1B 26 Feb 07:08:11 07:11:52 50° 286° (WNW) 07:15:29 145.475/437.950
XW-2A 26 Feb 07:08:17 07:11:10 24° 96° (E) 07:14:03 145.665 - 145.685
STRAND 1 26 Feb 07:10:08 07:15:16 71° 257° (WSW) 07:20:26 437.568
XW-2F 26 Feb 07:14:32 07:18:03 36° 288° (WNW) 07:21:31 145.980 - 146.000
XW-2D 26 Feb 07:19:51 07:23:12 29° 289° (WNW) 07:26:31 145.860 - 145.880
BEESAT 3 26 Feb 07:20:33 07:23:53 26° 312° (NW) 07:27:14 437.485
XW-2B 26 Feb 07:25:01 07:28:16 27° 290° (WNW) 07:31:29 145.730 - 145.750
Tancredo 1 26 Feb 07:29:12 07:32:13 36° 138° (SE) 07:35:15 437.200
CUBEBUG 2 26 Feb 07:29:42 07:32:45 17° 91° (E) 07:35:44 437.445
XW-2C 26 Feb 07:33:56 07:36:53 21° 292° (WNW) 07:39:48 145.795 - 145.815
NUDT-PHONESAT 26 Feb 07:42:45 07:45:34 20° 292° (WNW) 07:48:21 437.300
AAUSAT CUBESAT 2 26 Feb 07:45:02 07:47:25 15° 92° (E) 07:49:48 437.432
SO-50 26 Feb 07:50:16 07:54:25 37° 244° (WSW) 07:58:31 436.795
LilacSat-2 26 Feb 07:52:37 07:54:32 14° 295° (WNW) 07:56:28 437.200
SEEDS 26 Feb 07:57:10 08:01:10 43° 98° (E) 08:05:07 437.485
BEESAT 2 26 Feb 08:00:52 08:04:08 24° 313° (NW) 08:07:28 435.950
UWE-3 26 Feb 08:04:40 08:08:26 24° 94° (E) 08:12:07 435.000/436.395/437.385
HO-68 26 Feb 08:10:02 08:17:13 76° 105° (ESE) 08:24:22 435.675
FO-29 26 Feb 08:13:12 08:16:13 13° 50° (NE) 08:19:18 435.910
ZACube-1 26 Feb 08:23:48 08:27:20 22° 93° (E) 08:30:48 437.345
CUTE-I 26 Feb 08:27:02 08:30:12 16° 300° (WNW) 08:33:22 437.470
O/OREOS (USA 219) 26 Feb 08:32:04 08:36:39 70° 66° (ENE) 08:41:13 437.305
CUTE 1.7 + AOD 2 26 Feb 08:37:18 08:41:17 41° 288° (WNW) 08:45:14 437.475
XW-2A 26 Feb 08:41:20 08:43:47 18° 291° (WNW) 08:46:15 145.665 - 145.685
ISS 26 Feb 08:41:51 08:45:03 46° 330° (NNW) 08:48:15 437.550
PRISM 26 Feb 08:48:24 08:52:24 55° 73° (ENE) 08:56:22 437.425
CUBEBUG 2 26 Feb 09:05:01 09:09:38 51° 287° (WNW) 09:14:12 437.445
Tancredo 1 26 Feb 09:05:36 09:08:32 30° 335° (NNW) 09:11:28 437.200
DELFI C3 26 Feb 09:09:27 09:11:45 15° 92° (E) 09:14:01 145.870
AO-73 26 Feb 09:11:00 09:15:31 64° 100° (E) 09:19:56 145.935
UNISAT 6 26 Feb 09:15:44 09:20:01 44° 72° (ENE) 09:24:25 437.425
TIGRISAT 26 Feb 09:15:48 09:20:02 41° 71° (ENE) 09:24:22 435.000
Oscar 11 26 Feb 09:16:34 09:20:52 63° 101° (E) 09:25:07 .
AAUSAT CUBESAT 2 26 Feb 09:19:12 09:23:05 42° 288° (WNW) 09:26:58 437.432
SEEDS 26 Feb 09:33:54 09:36:30 16° 295° (WNW) 09:39:05 437.485
UWE-3 26 Feb 09:40:41 09:44:56 35° 290° (WNW) 09:49:05 435.000/436.395/437.385
FO-29 26 Feb 09:52:31 09:59:32 59° 70° (ENE) 10:07:09 435.910
YUBILEINY 26 Feb 09:53:11 10:01:19 43° 87° (E) 10:09:24 435.215
HO-68 26 Feb 09:59:00 10:04:12 22° 303° (WNW) 10:09:23 435.675
ZACube-1 26 Feb 09:59:32 10:03:42 35° 290° (WNW) 10:07:45 437.345
EO-79 26 Feb 10:05:23 10:07:26 13° 63° (ENE) 10:09:30 145.935-145.965
O/OREOS (USA 219) 26 Feb 10:14:04 10:15:24 11° 263° (W) 10:16:44 437.305
ISS 26 Feb 10:20:00 10:22:08 16° 349° (N) 10:24:15 437.550
NANOSAT C BR1 26 Feb 10:20:47 10:23:39 18° 65° (ENE) 10:26:32 145.865
POLYITAN 1 26 Feb 10:22:00 10:25:07 20° 66° (ENE) 10:28:15 437.675
QB50P2 26 Feb 10:24:45 10:28:05 23° 67° (ENE) 10:31:27 145.880/145.840
PRISM 26 Feb 10:26:36 10:28:00 11° 269° (W) 10:29:24 437.425
DELFI C3 26 Feb 10:43:02 10:46:42 38° 288° (WNW) 10:50:21 145.870
Tancredo 1 26 Feb 10:43:47 10:45:34 14° 354° (N) 10:47:22 437.200
BUGSAT 1 26 Feb 10:47:35 10:48:25 11° 61° (ENE) 10:49:15 437.445
AO-73 26 Feb 10:48:59 10:51:11 14° 298° (WNW) 10:53:22 145.935
TIGRISAT 26 Feb 10:53:40 10:56:53 19° 268° (W) 11:00:10 435.000
UNISAT 6 26 Feb 10:53:55 10:56:58 18° 268° (W) 11:00:04 437.425
Oscar 11 26 Feb 10:54:37 10:56:27 13° 297° (WNW) 10:58:17 .
LO-87 26 Feb 11:07:07 11:10:34 44° 99° (E) 11:14:02 145.935 - 145.965
AIST 2D 26 Feb 11:13:03 11:16:33 61° 260° (W) 11:20:06 435.315
ESTCUBE 1 26 Feb 11:24:44 11:28:50 35° 97° (E) 11:32:56 437.505/2401.250
DUCHIFAT 1 26 Feb 11:26:23 11:30:34 86° 78° (ENE) 11:34:50 145.980
EO-79 26 Feb 11:38:33 11:42:42 57° 260° (W) 11:46:54 145.935-145.965
FO-29 26 Feb 11:38:54 11:44:56 29° 269° (W) 11:51:26 435.910
VELOX 1 26 Feb 11:46:04 11:49:15 19° 94° (E) 11:52:26 145.980
SPROUT 26 Feb 11:46:24 11:49:03 16° 92° (E) 11:51:40 437.525
YUBILEINY 26 Feb 11:49:51 11:58:04 42° 287° (WNW) 12:06:18 435.215
AO-85 26 Feb 11:53:14 11:55:46 16° 43° (NE) 11:58:17 145.980
NANOSAT C BR1 26 Feb 11:55:06 11:59:03 40° 261° (W) 12:03:03 145.865
POLYITAN 1 26 Feb 11:56:46 12:00:39 35° 263° (W) 12:04:36 437.675
ISS 26 Feb 11:57:33 11:59:35 15° 9° (N) 12:01:38 437.550
QB50P2 26 Feb 11:59:59 12:03:43 30° 264° (W) 12:07:30 145.880/145.840
Gurwin Techsat 1B 26 Feb 12:11:30 12:14:57 18° 62° (ENE) 12:18:26 435.225
BUGSAT 1 26 Feb 12:19:08 12:23:10 70° 258° (WSW) 12:27:17 437.445
Tancredo 1 26 Feb 12:20:34 12:22:49 17° 15° (NNE) 12:25:04 437.200
LO-87 26 Feb 12:42:13 12:43:38 12° 295° (WNW) 12:45:04 145.935 - 145.965
Oscar 19 26 Feb 12:54:53 13:00:01 75° 74° (ENE) 13:05:10 437.125/150
ESTCUBE 1 26 Feb 13:01:59 13:05:26 22° 294° (WNW) 13:08:53 437.505/2401.250
50 SAT 26 Feb 13:04:09 13:07:37 70° 283° (WNW) 13:11:03 437.505
DX 1 26 Feb 13:09:12 13:13:33 68° 102° (ESE) 13:17:53 434.975-435.025
UKube-1 26 Feb 13:19:01 13:23:19 61° 102° (ESE) 13:27:34 .
SPROUT 26 Feb 13:21:04 13:25:10 45° 288° (WNW) 13:29:16 437.525
VELOX 1 26 Feb 13:21:44 13:25:50 38° 289° (WNW) 13:29:55 145.980
AO-85 26 Feb 13:32:38 13:36:27 52° 241° (WSW) 13:40:18 145.980
ITAMSAT 1 26 Feb 13:33:02 13:36:34 19° 62° (ENE) 13:40:07 435.822/435.867
ISS 26 Feb 13:33:34 13:36:43 40° 29° (NNE) 13:39:51 437.550
AO-7 26 Feb 13:46:09 13:53:23 34° 58° (ENE) 14:00:36 .
Gurwin Techsat 1B 26 Feb 13:49:07 13:54:22 63° 259° (WSW) 13:59:40 435.225
Tancredo 1 26 Feb 13:56:22 13:59:35 65° 34° (NNE) 14:02:46 437.200
BEESAT 26 Feb 13:57:25 13:58:37 11° 89° (E) 13:59:48 436.000
BEESAT 3 26 Feb 13:59:38 14:02:42 20° 46° (NE) 14:05:45 437.485
Oscar 19 26 Feb 14:37:40 14:39:52 13° 270° (W) 14:42:06 437.125/150
BEESAT 2 26 Feb 14:40:26 14:43:41 22° 47° (NE) 14:46:54 435.950
DX 1 26 Feb 14:47:27 14:49:10 12° 298° (WNW) 14:50:54 434.975-435.025
UKube-1 26 Feb 14:56:49 14:58:49 13° 298° (WNW) 15:00:48 .
ISS 26 Feb 15:10:19 15:13:03 24° 226° (SW) 15:15:45 437.550
ITAMSAT 1 26 Feb 15:10:26 15:15:33 59° 259° (WSW) 15:20:44 435.822/435.867
RS-15 26 Feb 15:20:12 15:26:42 17° 95° (E) 15:33:17 29.354- 29.394
PCSat 26 Feb 15:25:12 15:29:51 30° 109° (ESE) 15:34:31 145.827
ITUPSAT 1 26 Feb 15:26:22 15:31:12 90° 285° (WNW) 15:35:59 437.325
BEESAT 26 Feb 15:32:08 15:36:56 77° 285° (WNW) 15:41:41 436.000
Tancredo 1 26 Feb 15:33:46 15:35:28 14° 230° (SW) 15:37:09 437.200
BEESAT 3 26 Feb 15:36:41 15:40:28 41° 243° (WSW) 15:44:14 437.485
AO-7 26 Feb 15:37:32 15:45:44 58° 257° (WSW) 15:53:58 .
MOZHAYETS 4 26 Feb 15:41:55 15:46:24 50° 99° (E) 15:50:50
KKS-1 26 Feb 16:04:12 16:07:37 21° 94° (E) 16:11:02 437.445
BEESAT 2 26 Feb 16:17:48 16:21:33 37° 244° (WSW) 16:25:17 435.950
NO-84 26 Feb 16:23:39 16:26:32 34° 130° (SE) 16:29:40 435.350 FM
CUTE-I 26 Feb 16:29:57 16:33:10 16° 60° (ENE) 16:36:24 437.470
XW-2D 26 Feb 16:30:04 16:30:25 10° 63° (ENE) 16:30:46 145.860 - 145.880
XW-2B 26 Feb 16:34:17 16:35:27 11° 64° (ENE) 16:36:38 145.730 - 145.750
STARS 26 Feb 16:34:41 16:37:58 20° 94° (E) 16:41:14 437.465
XW-2C 26 Feb 16:42:01 16:44:04 14° 65° (ENE) 16:46:08 145.795 - 145.815
CUBESAT XI-V 26 Feb 16:44:51 16:49:06 36° 97° (E) 16:53:20 437.345
NUDT-PHONESAT 26 Feb 16:49:17 16:51:11 14° 65° (ENE) 16:53:06 437.300
HO-68 26 Feb 16:57:07 16:58:59 11° 48° (NE) 17:00:52 435.675
LilacSat-2 26 Feb 16:59:08 17:02:12 23° 69° (ENE) 17:05:18 437.200
ITUPSAT 1 26 Feb 17:07:05 17:08:16 11° 301° (WNW) 17:09:26 437.325
PCSat 26 Feb 17:08:01 17:13:05 40° 307° (NW) 17:18:12 145.827
MOZHAYETS 4 26 Feb 17:20:11 17:23:08 17° 296° (WNW) 17:26:04
RS-15 26 Feb 17:25:00 17:36:49 73° 116° (ESE) 17:49:05 29.354- 29.394
KKS-1 26 Feb 17:40:09 17:44:15 36° 290° (WNW) 17:48:20 437.445
KAITUO 1B 26 Feb 17:47:41 17:51:27 69° 76° (ENE) 17:55:16 145.475/437.950
DOVE 4 26 Feb 17:54:08 17:58:15 75° 258° (WSW) 18:02:27 437.250
XW-2F 26 Feb 17:54:42 17:58:32 80° 258° (WSW) 18:02:24 145.980 - 146.000
CUTE 1.7 + AOD 2 26 Feb 17:56:16 17:58:09 13° 63° (ENE) 18:00:01 437.475
XW-2D 26 Feb 18:00:15 18:04:03 64° 258° (WSW) 18:07:54 145.860 - 145.880
NO-84 26 Feb 18:01:24 18:04:15 26° 331° (NNW) 18:07:19 435.350 FM
XW-2B 26 Feb 18:05:22 18:09:09 56° 260° (W) 18:12:58 145.730 - 145.750
CUTE-I 26 Feb 18:07:18 18:12:36 71° 258° (WSW) 18:17:58 437.470
M-CUBED/EXP-1 PRIME 26 Feb 18:09:16 18:13:06 87° 282° (WNW) 18:17:15 437.505
STARS 26 Feb 18:10:19 18:14:25 37° 290° (WNW) 18:18:30 437.465
XW-2C 26 Feb 18:14:13 18:17:54 43° 262° (W) 18:21:36 145.795 - 145.815
NUDT-PHONESAT 26 Feb 18:21:09 18:24:44 43° 262° (W) 18:28:22 437.300
CUBESAT XI-V 26 Feb 18:22:42 18:26:15 22° 294° (WNW) 18:29:46 437.345
CUBEBUG 2 26 Feb 18:28:33 18:30:53 14° 62° (ENE) 18:33:14 437.445
LilacSat-2 26 Feb 18:33:08 18:36:23 25° 265° (W) 18:39:39 437.200
AAUSAT CUBESAT 2 26 Feb 18:36:42 18:37:51 11° 63° (ENE) 18:39:00 437.432
HO-68 26 Feb 18:38:14 18:45:11 57° 68° (ENE) 18:52:10 435.675
SEEDS 26 Feb 18:48:46 18:52:28 30° 70° (ENE) 18:56:10 437.485
UWE-3 26 Feb 19:01:54 19:05:07 20° 65° (ENE) 19:08:24 435.000/436.395/437.385
XW-2A 26 Feb 19:11:38 19:14:57 53° 260° (W) 19:18:19 145.665 - 145.685
ZACube-1 26 Feb 19:19:52 19:22:55 18° 65° (ENE) 19:26:00 437.345
STRAND 1 26 Feb 19:20:45 19:25:35 39° 98° (E) 19:30:22 437.568
CUTE 1.7 + AOD 2 26 Feb 19:29:13 19:33:27 61° 259° (W) 19:37:42 437.475
RS-15 26 Feb 19:39:09 19:50:22 41° 322° (NW) 20:01:54 29.354- 29.394
NO-84 26 Feb 19:41:57 19:43:01 11° 352° (N) 19:44:06 435.350 FM
CUBEBUG 2 26 Feb 20:02:31 20:06:54 62° 260° (W) 20:11:28 437.445
YUBILEINY 26 Feb 20:03:46 20:10:00 21° 63° (ENE) 20:16:10 435.215
AO-73 26 Feb 20:05:56 20:10:14 49° 73° (ENE) 20:14:38 145.935
AAUSAT CUBESAT 2 26 Feb 20:08:36 20:12:44 68° 259° (W) 20:16:53 437.432
Oscar 11 26 Feb 20:10:58 20:15:09 47° 73° (ENE) 20:19:21 .
SEEDS 26 Feb 20:24:48 20:28:09 23° 266° (W) 20:31:30 437.485
HO-68 26 Feb 20:27:18 20:33:14 28° 266° (W) 20:39:13 435.675
UWE-3 26 Feb 20:37:00 20:41:14 42° 262° (W) 20:45:36 435.000/436.395/437.385
ZACube-1 26 Feb 20:54:32 20:58:48 45° 262° (W) 21:03:12 437.345
STRAND 1 26 Feb 21:00:20 21:04:33 26° 295° (WNW) 21:08:45 437.568
NO-84 26 Feb 21:20:18 21:22:09 13° 14° (NNE) 21:24:03 435.350 FM
DELFI C3 26 Feb 21:27:50 21:31:47 72° 259° (W) 21:35:44 145.870
AO-73 26 Feb 21:43:59 21:46:44 16° 269° (W) 21:49:32 145.935
LO-87 26 Feb 21:44:06 21:46:34 18° 68° (ENE) 21:49:03 145.935 - 145.965
Oscar 11 26 Feb 21:48:59 21:51:32 15° 269° (W) 21:54:05 .
RS-15 26 Feb 21:58:23 22:07:38 23° 355° (N) 22:16:53 29.354- 29.394
YUBILEINY 26 Feb 21:59:10 22:07:56 84° 264° (W) 22:16:38 435.215
SO-50 26 Feb 22:03:38 22:08:18 68° 120° (ESE) 22:12:54 436.795
PRISM 26 Feb 22:04:36 22:08:41 89° 290° (WNW) 22:12:47 437.425
ESTCUBE 1 26 Feb 22:24:09 22:28:10 33° 70° (ENE) 22:32:12 437.505/2401.250
SPROUT 26 Feb 22:40:47 22:42:43 13° 63° (ENE) 22:44:38 437.525
TIGRISAT 26 Feb 22:43:23 22:48:07 89° 296° (WNW) 22:52:45 435.000
UNISAT 6 26 Feb 22:43:35 22:48:19 83° 282° (WNW) 22:52:57 437.425
VELOX 1 26 Feb 22:43:43 22:46:41 18° 65° (ENE) 22:49:39 145.980
O/OREOS (USA 219) 26 Feb 22:44:11 22:48:39 83° 111° (ESE) 22:53:10 437.305
FO-29 26 Feb 22:47:39 22:55:03 53° 98° (E) 23:01:42 435.910
NO-84 26 Feb 22:57:02 23:00:46 36° 33° (NNE) 23:04:43 435.350 FM
DUCHIFAT 1 26 Feb 23:11:54 23:14:04 14° 91° (E) 23:16:13 145.980
LO-87 26 Feb 23:16:52 23:19:51 26° 264° (W) 23:22:52 145.935 - 145.965
EO-79 26 Feb 23:23:37 23:27:01 22° 94° (E) 23:30:22 145.935-145.965
50 SAT 26 Feb 23:37:58 23:41:16 40° 73° (ENE) 23:44:34 437.505
NANOSAT C BR1 26 Feb 23:39:15 23:43:02 30° 96° (E) 23:46:49 145.865
POLYITAN 1 26 Feb 23:41:15 23:45:13 35° 98° (E) 23:49:08 437.675
QB50P2 26 Feb 23:44:12 23:48:17 41° 98° (E) 23:52:19 145.880/145.840
SO-50 26 Feb 23:45:58 23:49:12 18° 318° (NW) 23:52:25 436.795
YUBILEINY 26 Feb 23:58:36 00:03:17 16° 284° (WNW) 00:07:59 435.215
ESTCUBE 1 27 Feb 00:01:23 00:05:00 23° 265° (W) 00:08:38 437.505/2401.250
BUGSAT 1 27 Feb 00:01:41 00:04:29 17° 93° (E) 00:07:17 437.445
DX 1 27 Feb 00:04:27 00:08:40 57° 73° (ENE) 00:12:56 434.975-435.025
AIST 2D 27 Feb 00:11:24 00:14:50 48° 286° (WNW) 00:18:15 435.315
PCSat 27 Feb 00:12:32 00:17:08 27° 48° (NE) 00:21:42 145.827
UKube-1 27 Feb 00:13:13 00:17:22 51° 73° (ENE) 00:21:33 .
SPROUT 27 Feb 00:13:54 00:18:05 60° 259° (W) 00:22:20 437.525
RS-15 27 Feb 00:14:37 00:25:31 34° 30° (NNE) 00:36:05 29.354- 29.394
VELOX 1 27 Feb 00:18:38 00:22:47 43° 261° (W) 00:26:59 145.980
TIGRISAT 27 Feb 00:23:13 00:24:00 10° 301° (WNW) 00:24:48 435.000
O/OREOS (USA 219) 27 Feb 00:27:04 00:28:42 12° 310° (NW) 00:30:20 437.305
FO-29 27 Feb 00:33:06 00:39:38 32° 298° (WNW) 00:45:41 435.910
NO-84 27 Feb 00:34:38 00:38:30 37° 229° (SW) 00:42:33 435.350 FM
DUCHIFAT 1 27 Feb 00:45:53 00:50:01 51° 287° (WNW) 00:54:08 145.980
ITUPSAT 1 27 Feb 00:58:24 01:00:28 13° 60° (ENE) 01:02:32 437.325
EO-79 27 Feb 00:58:59 01:02:47 31° 290° (WNW) 01:06:34 145.935-145.965
BEESAT 27 Feb 01:03:16 01:05:49 14° 61° (ENE) 01:08:22 436.000
Oscar 19 27 Feb 01:06:56 01:11:11 26° 95° (E) 01:15:24 437.125/150
50 SAT 27 Feb 01:13:30 01:14:35 11° 268° (W) 01:15:40 437.505
NANOSAT C BR1 27 Feb 01:15:12 01:18:36 23° 293° (WNW) 01:21:59 145.865
POLYITAN 1 27 Feb 01:17:33 01:20:45 21° 294° (WNW) 01:23:57 437.675
QB50P2 27 Feb 01:20:49 01:23:45 18° 295° (WNW) 01:26:40 145.880/145.840
BUGSAT 1 27 Feb 01:36:01 01:40:00 41° 288° (WNW) 01:43:59 437.445
DX 1 27 Feb 01:43:23 01:45:12 12° 269° (W) 01:47:03 434.975-435.025
UKube-1 27 Feb 01:51:27 01:53:41 14° 268° (W) 01:55:56 .
PCSat 27 Feb 01:55:32 02:00:45 48° 247° (WSW) 02:05:55 145.827
Gurwin Techsat 1B 27 Feb 02:05:14 02:10:26 51° 100° (E) 02:15:36 435.225
RS-15 27 Feb 02:27:34 02:39:59 87° 57° (ENE) 02:51:51 29.354- 29.394
ITUPSAT 1 27 Feb 02:32:49 02:37:38 78° 257° (WSW) 02:42:28 437.325
BEESAT 27 Feb 02:38:16 02:43:01 67° 258° (WSW) 02:47:49 436.000
MOZHAYETS 4 27 Feb 02:43:26 02:47:53 48° 72° (ENE) 02:52:22
Oscar 19 27 Feb 02:45:52 02:50:34 38° 291° (WNW) 02:55:15 437.125/150
KKS-1 27 Feb 03:02:31 03:05:46 20° 65° (ENE) 03:09:01 437.445
ITAMSAT 1 27 Feb 03:23:10 03:28:15 49° 100° (E) 03:33:17 435.822/435.867
STARS 27 Feb 03:31:38 03:34:40 19° 65° (ENE) 03:37:43 437.465
AO-7 27 Feb 03:38:58 03:46:59 49° 101° (ESE) 03:54:55 .
Gurwin Techsat 1B 27 Feb 03:46:03 03:50:00 22° 297° (WNW) 03:53:56 435.225
AO-85 27 Feb 03:46:28 03:50:51 46° 118° (ESE) 03:54:57 145.980
CUBESAT XI-V 27 Feb 03:47:57 03:52:13 36° 70° (ENE) 03:56:27 437.345
MOZHAYETS 4 27 Feb 04:22:17 04:25:18 17° 268° (W) 04:28:19
KKS-1 27 Feb 04:37:56 04:42:03 38° 261° (W) 04:46:12 437.445
RS-15 27 Feb 04:41:46 04:50:52 26° 260° (W) 04:59:43 29.354- 29.394
M-CUBED/EXP-1 PRIME 27 Feb 04:56:07 04:59:21 63° 253° (WSW) 05:02:36 437.505
SO-50 27 Feb 04:57:05 04:58:02 11° 34° (NNE) 04:58:58 436.795
ITAMSAT 1 27 Feb 05:03:25 05:07:22 22° 297° (WNW) 05:11:17 435.822/435.867
STARS 27 Feb 05:06:34 05:10:42 41° 261° (W) 05:14:52 437.465
CUBESAT XI-V 27 Feb 05:26:02 05:29:39 22° 266° (W) 05:33:18 437.345
BEESAT 3 27 Feb 05:26:35 05:29:58 29° 114° (ESE) 05:33:24 437.485
AO-85 27 Feb 05:28:01 05:31:25 21° 314° (NW) 05:34:40 145.980
XW-2F 27 Feb 05:29:41 05:30:17 10° 90° (E) 05:30:53 145.980 - 146.000
AO-7 27 Feb 05:32:03 05:39:33 39° 300° (WNW) 05:47:01 .
XW-2D 27 Feb 05:34:24 05:36:14 13° 91° (E) 05:38:04 145.860 - 145.880
XW-2B 27 Feb 05:39:13 05:41:22 14° 92° (E) 05:43:31 145.730 - 145.750
XW-2C 27 Feb 05:47:28 05:50:12 19° 93° (E) 05:52:54 145.795 - 145.815
DOVE 4 27 Feb 05:52:06 05:56:19 30° 96° (E) 06:00:42 437.250
NUDT-PHONESAT 27 Feb 05:52:31 05:55:02 17° 93° (E) 05:57:31 437.300
LilacSat-2 27 Feb 06:05:50 06:09:18 32° 97° (E) 06:12:44 437.200
BEESAT 2 27 Feb 06:08:56 06:12:30 34° 116° (ESE) 06:16:09 435.950
ISS 27 Feb 06:15:34 06:16:30 11° 129° (SE) 06:17:25 437.550
CUTE-I 27 Feb 06:24:20 06:29:31 47° 99° (E) 06:34:40 437.470
Tancredo 1 27 Feb 06:34:47 06:37:05 18° 132° (SE) 06:39:23 437.200
SO-50 27 Feb 06:35:00 06:39:28 59° 54° (NE) 06:43:53 436.795
STRAND 1 27 Feb 06:36:27 06:41:28 56° 72° (ENE) 06:46:32 437.568
